Location: Hilton Head Island
(32.2163°N, 80.7526°W)
Time: 00:49:50
(UTC-05:00)

Tiros 1 despin weight - Pass Details

Date: 21 February 2026
Orbit: 556 x 593 km, 48.2° (Epoch: 5 March)

Event Time Altitude Azimuth Distance (km) Brightness Sun altitude
Rises 20:23:42 0° 309° (NW) 2,731 ? -28.0°
Reaches altitude 10° 20:25:57 10° 308° (NW) 1,836 ? -28.5°
Enters shadow 20:28:15 32° 306° (NW) 972 ? -29.0°
Maximum altitude 20:30:09 84° 222° (SW) 563 - -29.4°
Drops below altitude 10° 20:34:21 10° 133° (SE) 1,841 - -30.3°
Sets 20:36:36 0° 133° (SE) 2,740 - -30.7°
